Location: Killam
(52.7910°N, 111.8608°W)
Time: 20:46:43
(UTC+00:00)

Vanguard 2 Rocket - Pass Details

Date: 20 February 2026
Orbit: 553 x 3286 km, 32.9° (Epoch: 8 March)

Event Time Altitude Azimuth Distance (km) Brightness Sun altitude
Rises 22:00:06 0° 254° (WSW) 7,135 12.3 19.9°
Reaches altitude 10° 22:05:58 10° 246° (WSW) 5,882 12.3 19.4°
Maximum altitude 22:19:38 31° 194° (SSW) 3,508 11.2 18.1°
Drops below altitude 10° 22:29:01 10° 138° (SE) 3,987 10.3 17.1°
Sets 22:32:07 0° 127° (SE) 4,620 10.4 16.8°
